KD7MPG-3 Weather Reports


time (UTC)temp
C
wind
direction
speed
KPH
gust
KPH
rain 1hr
cm
rain 24hr
cm
rain mn
cm
humidity
%
barometer
mb
20260504031232 28 266 3.2 6.4 0.00 0.00 0.00 43 1015.0
20260504030731 29 265 1.6 6.4 0.00 0.00 0.00 42 1015.0
20260504030228 30 276 3.2 8.0 0.00 0.00 0.00 41 1015.0
20260504025727 30 277 3.2 8.0 0.00 0.00 0.00 39 1015.0
20260504025229 30 283 3.2 6.4 0.00 0.00 0.00 38 1015.0
20260504024727 31 286 1.6 4.8 0.00 0.00 0.00 37 1014.8
20260504024225 31 303 0.0 4.8 0.00 0.00 0.00 36 1014.9
20260504023725 31 304 1.6 4.8 0.00 0.00 0.00 36 1014.7
20260504023220 31 314 1.6 6.4 0.00 0.00 0.00 35 1014.6
20260504022719 31 303 1.6 6.4 0.00 0.00 0.00 35 1014.6
20260504022219 31 292 3.2 12.9 0.00 0.00 0.00 35 1014.7
20260504021719 31 315 4.8 12.9 0.00 0.00 0.00 34 1014.7
20260504021219 31 325 4.8 11.3 0.00 0.00 0.00 34 1014.8
20260504020720 31 286 4.8 11.3 0.00 0.00 0.00 34 1014.7
20260504020214 31 275 6.4 16.1 0.00 0.00 0.00 35 1014.9
20260504015713 31 285 6.4 16.1 0.00 0.00 0.00 34 1015.0
20260504015213 32 290 6.4 19.3 0.00 0.00 0.00 36 1014.9
20260504014713 32 28 6.4 19.3 0.00 0.00 0.00 35 1014.9
20260504014213 32 315 6.4 14.5 0.00 0.00 0.00 35 1014.8
20260504013713 32 286 4.8 12.9 0.00 0.00 0.00 35 1015.0
20260504013208 32 281 4.8 11.3 0.00 0.00 0.00 35 1015.0
20260504012707 32 297 4.8 16.1 0.00 0.00 0.00 34 1015.0
20260504012207 32 279 4.8 16.1 0.00 0.00 0.00 34 1015.0
20260504011707 33 342 4.8 14.5 0.00 0.00 0.00 34 1015.2
20260504011207 33 308 4.8 14.5 0.00 0.00 0.00 34 1015.2
20260504010708 33 325 4.8 14.5 0.00 0.00 0.00 34 1015.2
20260504010202 33 355 4.8 14.5 0.00 0.00 0.00 34 1015.2
20260504005701 33 17 4.8 11.3 0.00 0.00 0.00 34 1015.2
20260504005201 33 287 4.8 12.9 0.00 0.00 0.00 35 1015.2
20260504004702 33 279 3.2 12.9 0.00 0.00 0.00 34 1015.2
20260504004201 33 25 3.2 11.3 0.00 0.00 0.00 35 1015.5
20260504003701 33 275 4.8 12.9 0.00 0.00 0.00 35 1015.3
20260504003158 33 5 6.4 16.1 0.00 0.00 0.00 34 1015.4
20260504002657 33 36 4.8 16.1 0.00 0.00 0.00 35 1015.4
20260504002158 33 5 6.4 16.1 0.00 0.00 0.00 36 1015.4
20260504001657 33 296 6.4 16.1 0.00 0.00 0.00 35 1015.4
20260504001154 33 312 6.4 12.9 0.00 0.00 0.00 36 1015.6
20260504000656 33 271 6.4 12.9 0.00 0.00 0.00 35 1015.5
20260504000153 33 298 6.4 16.1 0.00 0.00 0.00 36 1015.5
20260503235653 33 10 4.8 16.1 0.00 0.00 0.00 35 1015.6
20260503235154 33 355 4.8 17.7 0.00 0.00 0.00 35 1015.5
20260503234651 33 33 4.8 17.7 0.00 0.00 0.00 34 1015.5
20260503234149 33 0 4.8 12.9 0.00 0.00 0.00 36 1015.5
20260503233650 33 304 4.8 14.5 0.00 0.00 0.00 36 1015.7
20260503233144 33 355 3.2 14.5 0.00 0.00 0.00 37 1015.6
20260503232642 33 24 3.2 11.3 0.00 0.00 0.00 35 1015.7
20260503232138 33 5 3.2 12.9 0.00 0.00 0.00 36 1015.9
20260503231637 33 5 4.8 12.9 0.00 0.00 0.00 37 1015.9
20260503231138 33 350 4.8 14.5 0.00 0.00 0.00 37 1015.9
20260503230632 33 254 4.8 14.5 0.00 0.00 0.00 38 1015.9
20260503230131 33 300 3.2 14.5 0.00 0.00 0.00 37 1016.1
20260503225631 32 66 3.2 14.5 0.00 0.00 0.00 39 1016.2
20260503225131 32 302 3.2 11.3 0.00 0.00 0.00 38 1016.3
20260503224631 32 22 4.8 14.5 0.00 0.00 0.00 39 1016.4
20260503224131 32 109 4.8 14.5 0.00 0.00 0.00 38 1016.6
20260503223626 32 340 4.8 12.9 0.00 0.00 0.00 40 1016.6
20260503223124 32 336 4.8 12.9 0.00 0.00 0.00 41 1016.7
20260503222625 32 355 4.8 11.3 0.00 0.00 0.00 42 1016.8
20260503222125 31 257 4.8 12.9 0.00 0.00 0.00 43 1016.8
20260503221625 32 285 4.8 14.5 0.00 0.00 0.00 43 1016.9
20260503221125 32 350 3.2 11.3 0.00 0.00 0.00 44 1016.9
20260503220622 31 29 3.2 11.3 0.00 0.00 0.00 46 1016.9
20260503220120 31 304 3.2 8.0 0.00 0.00 0.00 47 1017.0
20260503215619 31 92 3.2 12.9 0.00 0.00 0.00 44 1016.9
20260503215119 31 9 4.8 14.5 0.00 0.00 0.00 44 1017.1
20260503214619 31 342 4.8 14.5 0.00 0.00 0.00 44 1017.2
20260503214120 30 40 4.8 11.3 0.00 0.00 0.00 46 1017.3
20260503213614 30 19 6.4 19.3 0.00 0.00 0.00 47 1017.5
20260503213114 30 284 4.8 19.3 0.00 0.00 0.00 47 1017.6
20260503212613 30 46 4.8 11.3 0.00 0.00 0.00 48 1017.7
20260503212113 30 67 4.8 12.9 0.00 0.00 0.00 47 1017.7
20260503211613 30 76 4.8 12.9 0.00 0.00 0.00 51 1017.6
20260503211112 30 327 4.8 12.9 0.00 0.00 0.00 50 1017.8
20260503210610 29 5 4.8 12.9 0.00 0.00 0.00 49 1017.9
20260503210112 29 44 4.8 12.9 0.00 0.00 0.00 53 1017.9
20260503205609 29 34 4.8 12.9 0.00 0.00 0.00 52 1018.0
20260503205110 29 283 4.8 12.9 0.00 0.00 0.00 52 1018.0
20260503204609 28 17 4.8 14.5 0.00 0.00 0.00 50 1018.2
20260503204108 28 9 3.2 14.5 0.00 0.00 0.00 52 1018.1
20260503203610 28 331 3.2 8.0 0.00 0.00 0.00 54 1018.2
20260503203104 28 48 3.2 8.0 0.00 0.00 0.00 54 1018.3
20260503202606 28 14 4.8 12.9 0.00 0.00 0.00 55 1018.4
20260503202104 27 119 4.8 12.9 0.00 0.00 0.00 53 1018.4
20260503201605 27 47 4.8 12.9 0.00 0.00 0.00 56 1018.4
20260503201104 27 290 4.8 12.9 0.00 0.00 0.00 54 1018.5
20260503200606 27 323 3.2 11.3 0.00 0.00 0.00 55 1018.7
20260503200100 27 347 3.2 11.3 0.00 0.00 0.00 56 1018.7
20260503195602 27 20 3.2 11.3 0.00 0.00 0.00 58 1018.9
20260503195102 26 74 3.2 11.3 0.00 0.00 0.00 58 1018.9
20260503194601 26 292 3.2 14.5 0.00 0.00 0.00 58 1019.0
20260503194101 26 291 4.8 14.5 0.00 0.00 0.00 58 1019.0
20260503193602 26 259 3.2 11.3 0.00 0.00 0.00 59 1019.2
20260503193056 26 275 3.2 11.3 0.00 0.00 0.00 60 1019.3
20260503192602 25 314 4.8 9.7 0.00 0.00 0.00 62 1019.3
20260503192058 25 13 3.2 9.7 0.00 0.00 0.00 63 1019.3
20260503191557 25 263 4.8 12.9 0.00 0.00 0.00 62 1019.3
20260503191057 25 288 3.2 12.9 0.00 0.00 0.00 63 1019.3
20260503190558 24 317 3.2 8.0 0.00 0.00 0.00 65 1019.4
20260503190056 24 5 4.8 11.3 0.00 0.00 0.00 65 1019.3
20260503185557 24 275 4.8 11.3 0.00 0.00 0.00 64 1019.4
20260503185056 24 286 3.2 6.4 0.00 0.00 0.00 64 1019.5
20260503184556 24 281 3.2 12.9 0.00 0.00 0.00 64 1019.5
20260503184056 24 259 3.2 12.9 0.00 0.00 0.00 64 1019.5
20260503183554 23 34 1.6 6.4 0.00 0.00 0.00 66 1019.5
20260503183056 23 230 1.6 4.8 0.00 0.00 0.00 66 1019.6
20260503182553 23 304 3.2 8.0 0.00 0.00 0.00 65 1019.6
20260503182052 23 57 3.2 8.0 0.00 0.00 0.00 66 1019.7
20260503181552 23 350 1.6 6.4 0.00 0.00 0.00 67 1019.6
20260503181053 23 31 1.6 8.0 0.00 0.00 0.00 68 1019.7
20260503180552 22 342 1.6 8.0 0.00 0.00 0.00 68 1019.7
20260503180052 22 53 3.2 8.0 0.00 0.00 0.00 69 1019.9
20260503175549 22 63 3.2 8.0 0.00 0.00 0.00 70 1019.9
20260503175046 22 57 3.2 8.0 0.00 0.00 0.00 69 1019.9
20260503174546 21 17 3.2 9.7 0.00 0.00 0.00 70 1020.0
20260503174046 21 306 3.2 9.7 0.00 0.00 0.00 70 1020.0
20260503173546 21 22 4.8 8.0 0.00 0.00 0.00 70 1020.0
20260503173042 21 340 4.8 9.7 0.00 0.00 0.00 72 1020.1
20260503172540 21 0 4.8 9.7 0.00 0.00 0.00 72 1020.2
20260503172040 21 338 4.8 8.0 0.00 0.00 0.00 71 1020.2
20260503171540 21 343 3.2 9.7 0.00 0.00 0.00 72 1020.1
20260503171040 21 335 3.2 9.7 0.00 0.00 0.00 72 1020.0
20260503170541 20 311 3.2 8.0 0.00 0.00 0.00 73 1020.0
20260503150517 13 355 0.0 1.6 0.00 0.00 0.00 91 1020.4
20260503130952 9 355 0.0 0.0 0.00 0.00 0.00 93 1020.0
20260503130453 9 355 0.0 0.0 0.00 0.00 0.00 92 1020.1
20260503110427 10 0 0.0 0.0 0.00 0.00 0.00 92 1020.3
20260503090408 12 355 0.0 1.6 0.00 0.00 0.00 91 1020.5
20260503081359 12 355 0.0 0.0 0.00 0.00 0.00 90 1020.7
20260503080901 12 355 0.0 0.0 0.00 0.00 0.00 90 1020.7
20260503080400 12 355 0.0 0.0 0.00 0.00 0.00 90 1020.7
20260503072845 13 0 0.0 0.0 0.00 0.00 0.00 90 1021.0
20260503072345 13 355 0.0 0.0 0.00 0.00 0.00 90 1021.1
20260503071841 13 355 0.0 0.0 0.00 0.00 0.00 89 1021.1
20260503071342 13 355 0.0 0.0 0.00 0.00 0.00 89 1021.2
20260503070840 13 355 0.0 0.0 0.00 0.00 0.00 89 1021.2
20260503070338 13 355 0.0 0.0 0.00 0.00 0.00 89 1021.2
20260503060329 15 355 0.0 3.2 0.00 0.00 0.00 87 1021.1
20260503054829 15 351 1.6 4.8 0.00 0.00 0.00 87 1021.1
20260503054329 15 355 1.6 4.8 0.00 0.00 0.00 87 1021.0
20260503053830 15 355 0.0 4.8 0.00 0.00 0.00 86 1020.8
20260503053323 15 355 0.0 1.6 0.00 0.00 0.00 86 1021.1
20260503052822 16 355 0.0 1.6 0.00 0.00 0.00 85 1021.0
20260503052319 16 0 0.0 3.2 0.00 0.00 0.00 85 1021.0
20260503051817 16 355 0.0 3.2 0.00 0.00 0.00 85 1021.0
20260503051318 16 0 0.0 3.2 0.00 0.00 0.00 85 1021.0
20260503050815 16 0 0.0 3.2 0.00 0.00 0.00 85 1020.9
20260503050313 16 0 0.0 3.2 0.00 0.00 0.00 84 1020.9
20260503045815 16 355 0.0 3.2 0.00 0.00 0.00 84 1020.9
20260503045314 16 0 0.0 0.0 0.00 0.00 0.00 84 1021.1
20260503044811 16 0 0.0 3.2 0.00 0.00 0.00 84 1021.1
20260503044311 16 0 0.0 3.2 0.00 0.00 0.00 83 1021.1
20260503043805 16 355 0.0 3.2 0.00 0.00 0.00 83 1021.1
20260503043304 17 355 0.0 3.2 0.00 0.00 0.00 83 1021.0
20260503042801 17 355 0.0 3.2 0.00 0.00 0.00 83 1021.0
20260503042300 17 355 0.0 3.2 0.00 0.00 0.00 83 1021.0
20260503041800 17 355 1.6 6.4 0.00 0.00 0.00 82 1020.8
20260503041258 17 0 1.6 6.4 0.00 0.00 0.00 82 1020.8
20260503040755 17 344 0.0 1.6 0.00 0.00 0.00 82 1020.7
20260503040256 17 344 0.0 1.6 0.00 0.00 0.00 81 1020.8
20260503035755 17 344 0.0 3.2 0.00 0.00 0.00 80 1020.9
20260503035254 17 0 1.6 4.8 0.00 0.00 0.00 80 1020.7
20260503034753 17 344 1.6 4.8 0.00 0.00 0.00 80 1020.7
20260503034249 17 344 0.0 4.8 0.00 0.00 0.00 79 1020.5
20260503033749 17 344 1.6 4.8 0.00 0.00 0.00 79 1020.6
20260503033247 18 344 1.6 4.8 0.00 0.00 0.00 79 1020.3
20260503032747 18 0 1.6 3.2 0.00 0.00 0.00 79 1020.1
20260503032247 18 339 1.6 6.4 0.00 0.00 0.00 79 1020.0
20260503031747 18 9 1.6 6.4 0.00 0.00 0.00 79 1020.1